Total_Precipitation_Accumulation
2.31 2.49 2.44 2.34 2.23 2.31 2.24 2.10 1.91 1.93 1.87 1.69 1.54 1.56 1.60 1.60 1.61 1.73 1.81 1.72 1.77 2.03 2.47 2.80 2.91 2.81 2.76 2.73 2.66 2.56 2.42 2.31 2.24 2.07 1.90 1.68 1.50 1.41 1.40 1.45 1.49 1.42 1.42
2.82 2.98 2.94 2.77 2.52 2.50 2.46 2.38 2.32 2.38 2.31 2.25 2.06 1.92 1.84 1.90 1.86 1.88 2.04 2.11 1.99 2.00 2.41 2.92 3.21 3.23 3.13 3.08 2.88 2.64 2.57 2.53 2.47 2.34 2.21 1.98 1.75 1.62 1.54 1.50 1.55 1.53 1.47
3.30 3.37 3.38 3.10 2.86 2.82 2.95 2.88 2.80 2.77 2.52 2.43 2.36 2.27 2.13 2.02 1.99 2.02 2.18 2.46 2.35 2.35 2.50 2.62 2.79 2.97 3.15 3.35 3.37 3.14 2.91 2.76 2.66 2.56 2.46 2.33 2.14 1.94 1.81 1.74 1.72 1.67 1.59
3.42 3.50 3.49 3.35 3.20 3.14 3.38 3.49 3.40 3.31 3.13 3.04 2.87 2.61 2.34 2.25 2.24 2.36 2.46 2.62 2.80 2.73 2.76 2.63 2.50 2.64 2.98 3.25 3.43 3.49 3.30 3.02 2.83 2.78 2.71 2.61 2.41 2.25 2.07 1.97 1.96 1.87 1.74
3.77 3.80 3.71 3.70 3.73 3.80 3.79 3.57 3.66 3.54 3.53 3.41 2.98 2.74 2.43 2.34 2.43 2.41 2.52 2.56 2.73 2.71 2.72 2.58 2.50 2.52 2.75 3.12 3.29 3.53 3.55 3.43 3.26 3.09 2.99 2.91 2.75 2.52 2.32 2.17 2.08 1.98 1.84
4.18 4.38 4.34 4.27 4.26 4.23 4.03 3.96 3.94 3.75 3.58 3.45 2.98 2.71 2.47 2.31 2.29 2.36 2.36 2.33 2.34 2.31 2.32 2.41 2.64 2.52 2.63 2.77 2.83 3.08 3.38 3.58 3.46 3.28 3.17 3.12 2.95 2.67 2.39 2.26 2.20 2.14 2.04
4.97 5.02 4.81 4.60 4.47 4.46 4.37 4.33 4.14 3.92 3.66 3.54 3.44 3.04 2.50 2.20 2.20 2.17 2.17 2.18 2.14 2.16 2.26 2.33 2.35 2.33 2.34 2.44 2.41 2.55 2.84 3.21 3.36 3.39 3.39 3.30 3.15 2.93 2.64 2.42 2.34 2.30 2.22
5.17 5.10 5.12 5.03 4.84 4.66 4.46 4.28 4.20 4.03 3.69 3.60 3.57 3.43 2.92 2.47 2.08 1.83 1.85 1.86 1.87 2.02 2.03 2.02 2.11 2.19 2.19 2.27 2.26 2.42 2.59 2.79 3.07 3.23 3.20 3.11 3.02 3.01 2.96 2.79 2.63 2.50 2.42
5.32 5.17 5.05 4.83 4.68 4.56 4.39 4.19 4.02 3.91 3.69 3.56 3.52 3.61 3.29 2.83 2.30 1.91 1.70 1.64 1.63 1.75 1.79 1.83 1.85 1.93 2.06 2.17 2.16 2.27 2.39 2.41 2.65 2.90 3.03 2.99 2.90 2.84 2.82 2.81 2.77 2.70 2.63
4.96 4.73 4.61 4.50 4.32 4.01 3.78 3.63 3.55 3.40 3.28 3.13 3.18 3.15 3.00 2.82 2.77 2.49 2.14 1.96 1.87 1.85 1.86 1.80 1.78 1.88 1.92 2.05 2.21 2.23 2.18 2.18 2.37 2.54 2.73 2.85 2.83 2.86 2.88 2.87 2.83 2.80 2.79
4.36 4.10 3.97 3.81 3.59 3.22 2.87 2.74 2.82 2.90 2.91 2.84 2.83 2.87 2.86 2.71 2.66 2.60 2.42 2.23 2.11 1.98 1.94 1.99 1.99 1.97 1.94 1.93 2.00 2.13 2.09 1.92 2.02 2.15 2.36 2.57 2.68 2.81 2.89 2.84 2.84 2.82 2.83
3.76 3.41 3.10 2.85 2.62 2.45 2.26 2.21 2.25 2.34 2.54 2.65 2.77 2.79 2.78 2.68 2.60 2.61 2.50 2.40 2.31 2.15 2.00 1.93 1.95 1.94 1.92 1.91 1.88 2.04 1.84 1.73 1.70 1.76 1.91 2.09 2.24 2.36 2.40 2.55 2.72 2.79 2.90
2.98 2.70 2.43 2.32 2.19 2.08 2.01 2.00 1.98 1.94 2.06 2.25 2.38 2.48 2.54 2.54 2.54 2.59 2.69 2.65 2.46 2.26 2.15 2.00 1.89 1.84 1.84 1.89 1.87 1.92 1.73 1.62 1.54 1.51 1.49 1.57 1.64 1.79 1.95 2.12 2.30 2.47 2.58
2.26 2.02 1.83 1.72 1.71 1.76 1.70 1.73 1.74 1.73 1.74 1.82 1.93 2.13 2.24 2.27 2.30 2.31 2.35 2.47 2.51 2.36 2.14 1.99 1.90 1.78 1.69 1.63 1.66 1.63 1.42 1.44 1.32 1.28 1.28 1.30 1.33 1.36 1.46 1.56 1.65 1.75 1.82
1.65 1.51 1.43 1.41 1.40 1.43 1.49 1.49 1.45 1.47 1.54 1.58 1.60 1.70 1.79 1.82 1.89 1.97 2.05 2.13 2.32 2.36 2.15 1.90 1.79 1.66 1.48 1.36 1.42 1.25 1.20 1.23 1.12 1.05 1.02 1.04 1.05 1.08 1.12 1.19 1.28 1.34 1.36
1.33 1.33 1.26 1.20 1.14 1.13 1.15 1.19 1.22 1.25 1.29 1.35 1.39 1.40 1.45 1.47 1.56 1.66 1.80 1.91 1.98 2.05 2.02 1.73 1.52 1.39 1.30 1.15 1.21 1.07 1.09 1.11 0.97 0.96 0.92 0.91 0.95 1.00 1.01 1.05 1.08 1.15 1.18
1.10 1.07 0.97 0.91 0.88 0.91 0.97 1.02 1.06 1.11 1.15 1.18 1.25 1.27 1.30 1.29 1.36 1.40 1.43 1.50 1.64 1.74 1.78 1.59 1.40 1.32 1.26 1.16 1.11 1.10 1.07 1.00 0.92 0.94 0.89 0.88 0.88 0.89 0.90 0.90 0.91 0.96 1.05
0.93 0.87 0.76 0.73 0.72 0.76 0.82 0.85 0.88 0.92 1.01 1.02 1.03 1.06 1.08 1.09 1.14 1.17 1.22 1.25 1.34 1.47 1.55 1.56 1.46 1.37 1.29 1.19 1.14 1.16 0.97 0.81 0.80 0.85 0.78 0.73 0.72 0.71 0.73 0.74 0.75 0.76 0.78
0.86 0.78 0.69 0.67 0.66 0.67 0.68 0.71 0.75 0.74 0.79 0.86 0.88 0.93 0.94 0.96 0.94 0.91 0.97 1.05 1.13 1.22 1.39 1.41 1.34 1.26 1.15 1.08 1.16 1.07 0.99 1.05 0.79 0.75 0.69 0.63 0.61 0.59 0.58 0.58 0.59 0.60 0.61
0.72 0.68 0.65 0.61 0.60 0.60 0.62 0.62 0.59 0.64 0.70 0.75 0.77 0.81 0.82 0.84 0.85 0.85 0.86 1.00 1.07 1.20 1.28 1.29 1.26 1.20 1.12 1.05 1.16 1.16 1.13 1.09 0.91 0.68 0.66 0.58 0.57 0.54 0.53 0.53 0.52 0.51 0.50
0.63 0.59 0.57 0.54 0.50 0.46 0.44 0.44 0.46 0.52 0.61 0.63 0.67 0.68 0.69 0.75 0.84 0.82 0.80 0.89 0.99 1.14 1.17 1.18 1.19 1.16 1.10 1.11 1.13 1.08 1.12 1.10 0.99 0.83 0.84 0.70 0.67 0.69 0.69 0.64 0.58 0.56 0.50
0.59 0.54 0.52 0.49 0.45 0.35 0.36 0.36 0.37 0.45 0.56 0.60 0.60 0.59 0.56 0.57 0.64 0.71 0.73 0.80 0.91 1.00 1.07 1.12 1.13 1.12 1.09 1.15 1.20 1.15 1.18 1.21 1.17 0.92 0.94 0.87 0.78 0.85 0.82 0.75 0.66 0.55 0.48
0.61 0.55 0.51 0.50 0.52 0.44 0.29 0.25 0.28 0.40 0.55 0.56 0.57 0.61 0.55 0.52 0.60 0.64 0.66 0.66 0.72 0.75 0.84 1.02 1.13 1.18 1.22 1.31 1.37 1.33 1.31 1.30 1.29 1.05 1.07 1.02 0.90 0.97 0.80 0.69 0.71 0.59 0.50
0.59 0.56 0.53 0.56 0.60 0.46 0.30 0.21 0.25 0.39 0.49 0.46 0.48 0.56 0.64 0.67 0.62 0.61 0.63 0.68 0.72 0.73 0.75 0.82 1.04 1.12 1.11 1.19 1.29 1.34 1.34 1.29 1.28 1.24 1.25 1.22 0.95 0.91 0.82 1.00 0.99 0.81 0.64
0.61 0.59 0.57 0.62 0.65 0.51 0.34 0.26 0.29 0.40 0.48 0.47 0.49 0.48 0.50 0.57 0.56 0.61 0.68 0.82 0.86 0.87 0.70 0.74 0.86 0.94 0.97 1.02 1.07 1.18 1.33 1.44 1.42 1.33 1.27 1.25 1.09 0.97 0.98 1.19 1.16 1.09 0.89
0.57 0.52 0.55 0.63 0.62 0.54 0.37 0.29 0.31 0.36 0.46 0.55 0.61 0.60 0.56 0.53 0.52 0.58 0.71 0.85 0.91 0.92 0.93 1.06 1.17 1.17 1.12 1.11 1.07 1.20 1.41 1.49 1.47 1.43 1.30 1.29 1.29 1.21 1.25 1.29 1.33 1.26 1.17